Regional Weather Roundup
Issued by NWS Austin/San Antonio, TX

Current Version | Previous Version | Text Only | Print | Product List | Glossary On
Versions: 1 2 3 4 5 6 7 8 9 10 11 12 13 14 15 16 17 18 19 20 21 22 23 24 25 26 27 28 29 30 31 32 33 34 35 36 37 38 39 40 41 42 43 44 45 46 47 48 49 50
000
ASUS44 KEWX 051102
RWREWX
SOUTH TEXAS REGIONAL WEATHER ROUNDUP
NATIONAL WEATHER SERVICE AUSTIN/SAN ANTONIO TX
600 AM CDT SUN JUL 05 2020

NOTE: "FAIR" INDICATED FEW OR NO CLOUDS BELOW 12,000 FEET WITH NO
SIGNIFICANT WEATHER AND/OR OBSTRUCTIONS TO VISIBILITY.

* - THESE STATIONS ARE NOT NWS OR FAA STATIONS...AND ARE NOT SUBJECT
    TO NWS AND FAA QUALITY CONTROL.

TXZ171-172-183>190-051200-
TEXAS HILL COUNTRY AND EDWARDS PLATEAU

CITY           SKY/WX    TMP DP  RH WIND       PRES   REMARKS
JUNCTION       CLEAR     73  67  81 CALM      29.94R
*LLANO         PTCLDY    73  66  78 CALM      29.92R
BURNET         PTCLDY    76  67  73 CALM      29.92R
*HORSESHOE BAY PTCLDY    81  70  69 CALM      29.89R
*LAGO VISTA    CLEAR     78  69  73 SW7       29.91R
*KERRVILLE     CLEAR     74  70  87 CALM      29.94S
*FREDERICKSBRG PTCLDY    74  69  82 CALM      29.94S
*ROCKSPRINGS   CLEAR     73  70  88 S6        30.01S
*BOERNE        CLEAR     72  70  94 SW3       29.94R
*CASTROVILLE   CLEAR     76  72  88 MISG      29.92R
HONDO          CLEAR     72  68  87 NE3       29.90S
*UVALDE          N/A     73  73  97 NE6       29.91S
DEL RIO        CLEAR     81  66  60 E9        29.86S
*LAUGHLIN AFB  NOT AVBL
*SPOFFORD      NOT AVBL
*EAGLE PASS    NOT AVBL
CARRIZO SPRGS  CLEAR     77  64  65 CALM      29.85R
$$

TXZ173-191>194-202-209-217>225-228-051200-
CENTRAL AND SOUTH CENTRAL TEXAS

CITY           SKY/WX    TMP DP  RH WIND       PRES   REMARKS
GEORGETOWN     CLEAR     78  70  76 S7        29.89R
*TAYLOR        CLEAR     74  72  92 S5        29.88R
AUSTIN/BERGSTM PTCLDY    73  71  93 S5        29.87S
AUSTIN/MABRY   CLEAR     76  69  79 CALM      29.89R
*PFLUGERVILLE  CLEAR     73  72  94 CALM      29.88S
SAN MARCOS     CLEAR     74  72  93 S7        29.90R
NEW BRAUNFELS  CLOUDY    76  71  85 SW3       29.88R
*RANDOLPH AFB  CLOUDY    76  74  93 S3        29.89S
*SEGUIN        NOT AVBL
SAN ANTONIO    CLEAR     78  72  81 SW7       29.90R
STINSON FIELD  CLEAR     72  71  97 CALM      29.87R
*KELLY FIELD   CLEAR     74  71  92 CALM      29.88R
*PLEASANTON    CLEAR     73  72  96 CALM      29.88S FOG
*KENEDY        CLOUDY    76  74  93 S3        29.89R
*LA GRANGE     MOCLDY    77  77 100 CALM      29.87R
*GIDDINGS      PTCLDY    75  73  93 S5        29.89S
*GONZALES      CLOUDY    76  76 100 CALM      29.88S
$$

TXZ163>164-176>182-195>201-210>213-226-227-235-051200-
SOUTHEAST TEXAS

CITY           SKY/WX    TMP DP  RH WIND       PRES   REMARKS
COLLEGE STN    PTCLDY    77  74  90 S5        29.88R
*BRYAN         PTCLDY    78  76  92 S3        29.89S
*CALDWELL      PTCLDY    75 N/A N/A S5        29.89R
*CROCKETT      NOT AVBL
*BRENHAM       CLOUDY    77  75  95 SW5       29.89R
HUNTSVILLE     PTCLDY    78  73  84 SW5       29.88S
CONROE         CLEAR     78  74  87 SW6       29.89R
HOUSTON BUSH   PTCLDY    79  74  84 CALM      29.88S
HOUSTON HOBBY  PTCLDY    78  75  90 SW5       29.88R
*HOUSTON SW AP CLOUDY    72  72 100 CALM      29.90R FOG
PEARLAND       PTCLDY    78  74  87 CALM      29.90R
HOUSTON HOOKS  CLEAR     77  73  87 S3        29.88S
ELLINGTON FLD  CLEAR     77  75  94 SW5       29.87S
SUGAR LAND     MOCLDY    76  75  97 S3        29.88S
*HOUSTON EXEC    N/A     77  77 100 SW3       29.90R
*CLEVELAND MUN CLEAR     76  74  95 CALM      29.89R FOG
*WHARTON       PTCLDY    73  71  95 CALM      29.90R FOG
*COLUMBUS      MOCLDY    76  75  96 SW6       29.89S
*EAGLE LAKE    CLOUDY    79  77  94 SW6       29.89
$$

TXZ214>216-236>238-051200-
THE UPPER TEXAS COAST

CITY           SKY/WX    TMP DP  RH WIND       PRES   REMARKS
*ORANGE        PTCLDY    81  77  90 CALM      29.89R
PORT ARTHUR    PTCLDY    77  77 100 SW3       29.87R
GALVESTON      CLEAR     82  77  84 SW8       29.89R HX  90
ANGLETON       PTCLDY    76  74  93 CALM      29.89R
*BAY CITY      CLEAR     78  78 100 SW3       29.88R
PALACIOS       PTCLDY    83  76  79 S14       29.88R HX  91
$$

TXZ229>234-239>247-051200-
TEXAS COASTAL BEND AND RIO GRANDE PLAINS

CITY           SKY/WX    TMP DP  RH WIND       PRES   REMARKS
VICTORIA       MOCLDY    78  75  90 S3        29.88R
*BEEVILLE      CLOUDY    78  78 100 S9        29.86S
ROCKPORT       MOCLDY    80  75  84 VRB5      29.87R
*PORT ARANSAS  MOCLDY    80  77  90 S13       29.89R
*PORT LAVACA   CLEAR     80  77  92 S7        29.88R
*INGLESIDE     CLEAR     81  78  92 SW8       29.86S
CORPUS CHRISTI CLEAR     76  75  97 S6        29.86S
CORPUS NAS     NOT AVBL
*ROBSTOWN      CLEAR     75  73  92 S6        29.87S
ALICE          CLOUDY    77  75  93 S7        29.86R
KINGSVILLE NAS CLEAR     75  74  96 SE3       29.86R
COTULLA        CLEAR     75  71  87 SE5       29.85S
LAREDO         CLEAR     77  74  90 SE10      29.85R
$$

TXZ248>255-051200-
DEEP SOUTH TEXAS

CITY           SKY/WX    TMP DP  RH WIND       PRES   REMARKS
BROWNSVILLE    CLEAR     78  75  90 S10       29.86F
PORT ISABEL    CLEAR     79  75  87 S10       29.85F
HARLINGEN      CLEAR     79  76  90 S10       29.85F
*HEBBRONVILLE  FOG       73  72  97 S3        29.88S VSB 3/4
MCALLEN        CLOUDY    79  75  87 SE13      29.86S
*WESLACO       MOCLDY    77  74  91 S9        29.85S
FALFURRIAS     NOT AVBL
EDINBURG       CLOUDY    78  75  90 S7        29.86S
*ZAPATA        CLEAR     79  75  89 SE5       29.86R
$$

TXZ213>215-236>238-242>244-246-247-251-254-255-051200-
CMAN STATIONS

STATION/POSITION TIME  TEMP    WIND        PRES    WAVE
                       AIR SEA DIR/SP/G            HT/PER
                 (UTC) (F)     (DEG/KT/KT) (MB)    (FT/S)
SABINE PASS      1030   80 88  280/  3/  6 1013.2
NORTH JETTY/GLS  1030   85 85  230/  9/ 12 1010.6
EAGLE POINT      1030   80 87  250/  4/  8 1011.4
MORGANS POINT    1030   80 86  260/  7/ 10 1011.9
PORT O`CONNOR    1030   80 88  200/ 11/ 13 1011.2
PORT ARANSAS     1000   80 82  180/ 19/ 21 1010.8
MALAQUITE BEACH  1030   80     170/ 14/ 17   N/A
BAFFIN BAY       1030   81 85  160/ 17/ 21 1011.1
PORT ISABEL      1030   80 84  180/ 10/ 13 1012.9
$$



USA.gov is the U.S. government's official web portal to all federal, state and local government web resources and services.